Location: New Plymouth
(39.0670°S, 174.0830°E)
Time: 03:08:46
(UTC+13:00)

Cosmos 968 Rocket - Pass Details

Date: 24 January 2019
Orbit: 742 x 770 km, 74.0° (Epoch: 21 February)

Event Time Altitude Azimuth Distance (km) Brightness Sun altitude
Exits shadow 23:08:49 54° 53° (NE) 926 3.5 -22.3°
Maximum altitude 23:09:19 56° 76° (ENE) 904 3.5 -22.4°
Drops below altitude 10° 23:14:28 10° 153° (SSE) 2,324 6.3 -23.0°
Sets 23:16:54 0° 156° (SSE) 3,261 7.2 -23.3°
